Вернуться в каталог

SL-3 R/B

АктивенPO
NORAD 6660·ROCKET BODY·🇷🇺 Russia

Запущен May 29, 1973 с Plesetsk Cosmodrome

Loading…

Ближайшие Пролёты (ближайшие 24 часа)

TLE

СвежийSource: Space-Track

Эпоха: Sep 14, 2026, 11:36 UTC

1 06660U 73034B   26257.48350838  .00000135  00000-0  74290-4 0  9991
2 06660  81.2341 336.3977 0045748 323.2213  36.5819 14.06294996732555

Отслеживайте SL-3 R/B в реальном времени с AllMySat

Download on the App Store